When you browse on this site, cookies collect data to enhance your experience and personalize the content and advertising you see.
Visit our Privacy Policy to learn more. By continuing to use the site, you agree to this use of cookies and data.

Tiempo cada hora Paraná

Hoy, 9 Julio, Jueves

Tiempo Temperatura Precipitaciones Viento Presión Humedad
00:00 +7°C° 0 mm 1 mps 762 mmHg 81%
01:00 +7°C° 0 mm 1 mps 762 mmHg 82%
02:00 +7°C° 0 mm 1 mps 762 mmHg 85%
03:00 +7°C° 0 mm 1 mps 762 mmHg 86%
04:00 +6°C° 0 mm 1 mps 762 mmHg 86%
05:00 +6°C° 0 mm 1 mps 762 mmHg 87%
06:00 +6°C° 0 mm 1 mps 762 mmHg 86%
07:00 +7°C° 0 mm 1 mps 763 mmHg 85%
08:00 +7°C° 0 mm 1 mps 763 mmHg 83%
09:00 +9°C° 0 mm 1 mps 763 mmHg 75%
10:00 +10°C° 0 mm 2 mps 763 mmHg 67%
11:00 +13°C° 0 mm 2 mps 762 mmHg 60%
12:00 +13°C° 0 mm 3 mps 762 mmHg 57%
13:00 +13°C° 0 mm 3 mps 761 mmHg 53%
14:00 +14°C° 0 mm 3 mps 760 mmHg 50%
15:00 +13°C° 0 mm 3 mps 760 mmHg 56%
16:00 +12°C° 0 mm 3 mps 759 mmHg 61%
17:00 +11°C° 0 mm 3 mps 758 mmHg 66%
18:00 +10°C° 0 mm 3 mps 758 mmHg 69%
19:00 +10°C° 0 mm 3 mps 758 mmHg 73%
20:00 +8°C° 0 mm 4 mps 758 mmHg 76%
21:00 +8°C° 0 mm 4 mps 757 mmHg 78%
22:00 +8°C° 0 mm 4 mps 757 mmHg 79%
23:00 +7°C° 0 mm 4 mps 757 mmHg 81%

Mañana, 10 Julio, Viernes

Tiempo Temperatura Precipitaciones Viento Presión Humedad
00:00 +7°C° 0 mm 4 mps 756 mmHg 81%
01:00 +7°C° 0 mm 5 mps 756 mmHg 82%
02:00 +7°C° 0 mm 6 mps 755 mmHg 82%
03:00 +7°C° 0 mm 6 mps 755 mmHg 83%
04:00 +7°C° 0 mm 5 mps 754 mmHg 84%
05:00 +7°C° 0 mm 5 mps 754 mmHg 85%
06:00 +7°C° 0 mm 5 mps 754 mmHg 85%
07:00 +7°C° 0 mm 5 mps 754 mmHg 85%
08:00 +7°C° 0 mm 5 mps 754 mmHg 84%
09:00 +10°C° 0 mm 4 mps 755 mmHg 78%
10:00 +12°C° 0 mm 4 mps 755 mmHg 72%
11:00 +14°C° 0 mm 4 mps 755 mmHg 66%
12:00 +16°C° 0 mm 3 mps 754 mmHg 64%
13:00 +17°C° 0 mm 3 mps 754 mmHg 61%
14:00 +18°C° 0 mm 2 mps 754 mmHg 59%
15:00 +17°C° 0 mm 2 mps 754 mmHg 64%
16:00 +16°C° 0 mm 2 mps 754 mmHg 68%
17:00 +15°C° 0 mm 1 mps 754 mmHg 72%
18:00 +14°C° 0 mm 2 mps 755 mmHg 75%
19:00 +13°C° 0 mm 2 mps 756 mmHg 77%
20:00 +13°C° 0 mm 2 mps 757 mmHg 80%
21:00 +12°C° 0 mm 2 mps 757 mmHg 81%
22:00 +10°C° 0 mm 2 mps 758 mmHg 82%
23:00 +11°C° 0 mm 1 mps 758 mmHg 84%

Pasado mañana, 11 Julio, Sábado

Tiempo Temperatura Precipitaciones Viento Presión Humedad
00:00 +9°C° 0 mm 2 mps 758 mmHg 84%
01:00 +9°C° 0 mm 2 mps 759 mmHg 83%
02:00 +9°C° 0 mm 2 mps 759 mmHg 83%
03:00 +8°C° 0 mm 2 mps 759 mmHg 82%
04:00 +8°C° 0 mm 3 mps 759 mmHg 82%
05:00 +7°C° 0 mm 3 mps 759 mmHg 81%
06:00 +7°C° 0 mm 3 mps 759 mmHg 78%
07:00 +7°C° 0 mm 3 mps 759 mmHg 75%
08:00 +7°C° 0 mm 3 mps 759 mmHg 72%
09:00 +9°C° 0 mm 3 mps 759 mmHg 63%
10:00 +12°C° 0 mm 2 mps 759 mmHg 55%
11:00 +14°C° 0 mm 2 mps 759 mmHg 46%
12:00 +15°C° 0 mm 2 mps 758 mmHg 43%
13:00 +16°C° 0 mm 2 mps 757 mmHg 39%
14:00 +17°C° 0 mm 2 mps 756 mmHg 36%
15:00 +16°C° 0 mm 2 mps 756 mmHg 42%
16:00 +15°C° 0 mm 2 mps 755 mmHg 48%
17:00 +14°C° 0 mm 2 mps 754 mmHg 53%
18:00 +13°C° 0 mm 1 mps 754 mmHg 58%
19:00 +12°C° 0 mm 1 mps 755 mmHg 63%
20:00 +11°C° 0 mm 1 mps 755 mmHg 67%
21:00 +11°C° 0 mm 1 mps 755 mmHg 70%
22:00 +11°C° 0 mm 1 mps 755 mmHg 72%
23:00 +10°C° 0 mm 1 mps 755 mmHg 75%

12 Julio, Domingo

Tiempo Temperatura Precipitaciones Viento Presión Humedad
00:00 +10°C° 0 mm 1 mps 755 mmHg 76%
01:00 +10°C° 0 mm 1 mps 755 mmHg 77%
02:00 +10°C° 0 mm 1 mps 754 mmHg 78%
03:00 +10°C° 0 mm 1 mps 754 mmHg 79%
04:00 +10°C° 0 mm 1 mps 754 mmHg 81%
05:00 +10°C° 0 mm 1 mps 753 mmHg 82%
06:00 +11°C° 0 mm 1 mps 753 mmHg 82%
07:00 +10°C° 0 mm 0 mps 754 mmHg 82%
08:00 +10°C° 0 mm 0 mps 754 mmHg 82%
09:00 +13°C° 0 mm 1 mps 754 mmHg 75%
10:00 +15°C° 0 mm 1 mps 754 mmHg 68%
11:00 +17°C° 0 mm 2 mps 754 mmHg 61%
12:00 +18°C° 0 mm 2 mps 754 mmHg 58%
13:00 +19°C° 0 mm 2 mps 753 mmHg 56%
14:00 +19°C° 0 mm 3 mps 753 mmHg 53%
15:00 +18°C° 0 mm 2 mps 753 mmHg 57%
16:00 +17°C° 0 mm 2 mps 753 mmHg 61%
17:00 +16°C° 0 mm 2 mps 754 mmHg 65%
18:00 +15°C° 0 mm 2 mps 754 mmHg 66%
19:00 +12°C° 0 mm 3 mps 755 mmHg 66%
20:00 +11°C° 0 mm 3 mps 756 mmHg 67%
21:00 +11°C° 0 mm 3 mps 756 mmHg 68%
22:00 +10°C° 0 mm 3 mps 757 mmHg 69%
23:00 +9°C° 0 mm 3 mps 757 mmHg 70%

13 Julio, Lunes

Tiempo Temperatura Precipitaciones Viento Presión Humedad
00:00 +9°C° 0 mm 3 mps 757 mmHg 70%
01:00 +8°C° 0 mm 3 mps 758 mmHg 70%
02:00 +8°C° 0 mm 3 mps 758 mmHg 70%
03:00 +7°C° 0 mm 3 mps 758 mmHg 72%
04:00 +7°C° 0 mm 3 mps 759 mmHg 74%
05:00 +7°C° 0 mm 3 mps 759 mmHg 76%
06:00 +7°C° 0 mm 3 mps 760 mmHg 75%
07:00 +7°C° 0 mm 3 mps 761 mmHg 74%
08:00 +7°C° 0 mm 3 mps 761 mmHg 73%
09:00 +9°C° 0 mm 3 mps 762 mmHg 64%
10:00 +10°C° 0 mm 3 mps 762 mmHg 55%
11:00 +12°C° 0 mm 3 mps 763 mmHg 46%
12:00 +13°C° 0 mm 3 mps 762 mmHg 43%
13:00 +14°C° 0 mm 3 mps 762 mmHg 40%
14:00 +14°C° 0 mm 3 mps 761 mmHg 38%
15:00 +14°C° 0 mm 2 mps 761 mmHg 42%
16:00 +13°C° 0 mm 2 mps 761 mmHg 47%
17:00 +12°C° 0 mm 1 mps 761 mmHg 51%
18:00 +12°C° 0 mm 1 mps 761 mmHg 52%
19:00 +11°C° 0 mm 1 mps 762 mmHg 54%
20:00 +10°C° 0 mm 1 mps 762 mmHg 55%
21:00 +9°C° 0 mm 1 mps 762 mmHg 55%
22:00 +8°C° 0 mm 2 mps 762 mmHg 55%
23:00 +7°C° 0 mm 2 mps 763 mmHg 56%

14 Julio, Martes

Tiempo Temperatura Precipitaciones Viento Presión Humedad
00:00 +8°C° 0 mm 1 mps 763 mmHg 56%
01:00 +7°C° 0 mm 1 mps 763 mmHg 57%
02:00 +7°C° 0 mm 1 mps 763 mmHg 57%
03:00 +7°C° 0 mm 1 mps 763 mmHg 58%
04:00 +6°C° 0 mm 1 mps 763 mmHg 58%
05:00 +6°C° 0 mm 1 mps 763 mmHg 59%
06:00 +6°C° 0 mm 1 mps 764 mmHg 59%
07:00 +7°C° 0 mm 1 mps 764 mmHg 59%
08:00 +7°C° 0 mm 1 mps 765 mmHg 59%
09:00 +9°C° 0 mm 1 mps 765 mmHg 50%
10:00 +11°C° 0 mm 1 mps 765 mmHg 42%
11:00 +13°C° 0 mm 1 mps 766 mmHg 34%
12:00 +14°C° 0 mm 2 mps 765 mmHg 33%
13:00 +14°C° 0 mm 2 mps 765 mmHg 31%
14:00 +15°C° 0 mm 2 mps 764 mmHg 30%
15:00 +14°C° 0 mm 2 mps 764 mmHg 34%
16:00 +13°C° 0 mm 2 mps 764 mmHg 39%
17:00 +10°C° 0 mm 2 mps 764 mmHg 43%
18:00 +9°C° 0 mm 2 mps 764 mmHg 45%
19:00 +8°C° 0 mm 2 mps 764 mmHg 47%
20:00 +7°C° 0 mm 2 mps 764 mmHg 49%
21:00 +7°C° 0 mm 2 mps 764 mmHg 51%
22:00 +6°C° 0 mm 2 mps 765 mmHg 53%
23:00 +6°C° 0 mm 2 mps 765 mmHg 55%
Mostrar más